Weather History for KGBD - July, 2013

Change the Weather History Date:

Thursday, July 25, 2013

  Actual Average Record
Temperature  
Mean Temperature 74 °F -  
Max Temperature 82 °F 92 °F 107 °F (2006)
Min Temperature 66 °F 68 °F 55 °F (2004)
Cooling Degree Days 9    
Growing Degree Days 24 (Base 50)    
Moisture  
Dew Point 67 °F    
Average Humidity 79    
Maximum Humidity 89    
Minimum Humidity 65    
Precipitation  
Precipitation 0.76 in - - ()
Sea Level Pressure  
Sea Level Pressure 30.04 in    
Wind  
Wind Speed 8 mph (SSE)    
Max Wind Speed 21 mph    
Max Gust Speed 26 mph    
Visibility 10 miles    
Events Thunderstorm    
Averages and records for this station are not official NWS values.
T = Trace of Precipitation, MM = Missing Value Source: NWS Daily Summary

Daily Weather History Graph

Daily Weather History Graph

Search for Another Location

Airport or City:

Trip Planner

Search our weather history database for the weather conditions in past years. The results will help you decide how hot, cold, wet, or windy it might be!

Date:

Astronomy

Jul. 25, 2013 Rise Set
Actual Time 6:31 AM CDT 8:51 PM CDT
Civil Twilight 6:02 AM CDT 9:21 PM CDT
Nautical Twilight 5:25 AM CDT 9:58 PM CDT
Astronomical Twilight 4:44 AM CDT 10:38 PM CDT
Moon 10:37 PM CDT (7/25) 9:59 AM CDT (7/25)
Length of Visible Light 15h 19m
Length of Day
14h 19m
Waning Gibbous, 88% of the Moon is Illuminated
Jul 25
Waning Gibbous
Jul 29
Last Quarter
Aug 6
New
Aug 14
First Quarter
Aug 20
Full

Hourly Weather History & Observations

Time (CDT) Temp. Heat Index Dew Point Humidity Pressure Visibility Wind Dir Wind Speed Gust Speed Precip Events Conditions
12:15 AM 69.8 °F - 62.6 °F 78% 30.07 in 10.0 mi SE 4.6 mph - N/A   Clear
12:35 AM 69.8 °F - 62.6 °F 78% 30.07 in 10.0 mi SE 5.8 mph - N/A   Clear
12:55 AM 71.6 °F - 62.6 °F 73% 30.06 in 10.0 mi ESE 5.8 mph - N/A   Clear
1:15 AM 71.6 °F - 62.6 °F 73% 30.07 in 10.0 mi ESE 4.6 mph - N/A   Clear
1:35 AM 69.8 °F - 62.6 °F 78% 30.07 in 10.0 mi SE 5.8 mph - N/A   Clear
1:55 AM 69.8 °F - 62.6 °F 78% 30.08 in 10.0 mi SSE 4.6 mph - N/A   Clear
2:15 AM 69.8 °F - 62.6 °F 78% 30.08 in 10.0 mi SE 5.8 mph - N/A   Clear
2:35 AM 69.8 °F - 62.6 °F 78% 30.07 in 10.0 mi ESE 6.9 mph - N/A   Clear
2:55 AM 69.8 °F - 62.6 °F 78% 30.06 in 10.0 mi SSE 8.1 mph - N/A   Clear
3:15 AM 69.8 °F - 62.6 °F 78% 30.06 in 10.0 mi SSE 8.1 mph - N/A   Clear
3:35 AM 69.8 °F - 62.6 °F 78% 30.06 in 10.0 mi SSE 8.1 mph - N/A   Clear
3:55 AM 69.8 °F - 62.6 °F 78% 30.06 in 10.0 mi SSE 6.9 mph - N/A   Clear
4:15 AM 69.8 °F - 62.6 °F 78% 30.05 in 10.0 mi SSE 6.9 mph - N/A   Clear
4:35 AM 69.8 °F - 62.6 °F 78% 30.05 in 10.0 mi South 6.9 mph - N/A   Clear
4:55 AM 69.8 °F - 62.6 °F 78% 30.06 in 10.0 mi South 8.1 mph - N/A   Clear
5:15 AM 69.8 °F - 62.6 °F 78% 30.06 in 10.0 mi South 9.2 mph - N/A   Clear
5:35 AM 69.8 °F - 64.4 °F 83% 30.05 in 10.0 mi South 8.1 mph - N/A   Clear
5:55 AM 69.8 °F - 64.4 °F 83% 30.05 in 10.0 mi South 9.2 mph - N/A   Clear
6:15 AM 71.6 °F - 64.4 °F 78% 30.06 in 10.0 mi SW 5.8 mph - N/A   Mostly Cloudy
6:35 AM 71.6 °F - 64.4 °F 78% 30.06 in 10.0 mi SSW 8.1 mph - N/A   Scattered Clouds
6:55 AM 69.8 °F - 64.4 °F 83% 30.06 in 10.0 mi SW 4.6 mph - N/A   Partly Cloudy
7:15 AM 69.8 °F - 64.4 °F 83% 30.05 in 10.0 mi South 6.9 mph - N/A   Clear
7:35 AM 71.6 °F - 64.4 °F 78% 30.05 in 10.0 mi South 9.2 mph - N/A   Partly Cloudy
7:55 AM 71.6 °F - 66.2 °F 83% 30.05 in 10.0 mi South 6.9 mph - N/A   Mostly Cloudy
8:15 AM 71.6 °F - 66.2 °F 83% 30.05 in 7.0 mi South 6.9 mph - N/A   Overcast
8:35 AM 71.6 °F - 66.2 °F 83% 30.05 in 10.0 mi South 6.9 mph - N/A   Mostly Cloudy
8:55 AM 73.4 °F - 66.2 °F 78% 30.05 in 10.0 mi SSE 8.1 mph - N/A   Partly Cloudy
9:15 AM 73.4 °F - 68.0 °F 83% 30.05 in 10.0 mi South 10.4 mph - N/A   Clear
9:35 AM 75.2 °F - 68.0 °F 78% 30.05 in 10.0 mi South 10.4 mph - N/A   Partly Cloudy
9:55 AM 75.2 °F - 68.0 °F 78% 30.04 in 10.0 mi SSE 8.1 mph - N/A   Mostly Cloudy
10:15 AM 75.2 °F - 68.0 °F 78% 30.04 in 10.0 mi ESE 6.9 mph - N/A   Overcast
10:35 AM 75.2 °F - 68.0 °F 78% 30.05 in 10.0 mi SSE 5.8 mph - N/A   Mostly Cloudy
10:55 AM 75.2 °F - 69.8 °F 83% 30.05 in 10.0 mi SE 5.8 mph - N/A   Partly Cloudy
11:15 AM 75.2 °F - 69.8 °F 83% 30.05 in 10.0 mi SSE 6.9 mph - N/A   Mostly Cloudy
11:35 AM 75.2 °F - 69.8 °F 83% 30.05 in 10.0 mi SE 8.1 mph - N/A   Mostly Cloudy
11:55 AM 75.2 °F - 69.8 °F 83% 30.06 in 10.0 mi SSE 8.1 mph - N/A   Mostly Cloudy
12:15 PM 75.2 °F - 69.8 °F 83% 30.06 in 10.0 mi SSE 9.2 mph - N/A   Overcast
12:35 PM 75.2 °F - 69.8 °F 83% 30.06 in 10.0 mi SE 9.2 mph - N/A   Mostly Cloudy
12:55 PM 75.2 °F - 69.8 °F 83% 30.06 in 10.0 mi SE 8.1 mph - N/A   Mostly Cloudy
1:15 PM 77.0 °F - 69.8 °F 78% 30.06 in 10.0 mi SE 8.1 mph - N/A   Scattered Clouds
1:35 PM 78.8 °F - 71.6 °F 78% 30.05 in 10.0 mi SE 9.2 mph - N/A   Scattered Clouds
1:55 PM 78.8 °F - 71.6 °F 78% 30.04 in 10.0 mi SE 13.8 mph - N/A   Partly Cloudy
2:15 PM 80.6 °F 83.9 °F 69.8 °F 70% 30.04 in 10.0 mi SSE 15.0 mph - N/A   Mostly Cloudy
2:35 PM 82.4 °F 86.3 °F 69.8 °F 66% 30.04 in 10.0 mi SSE 18.4 mph - 0.01 in   Mostly Cloudy
2:55 PM 82.4 °F 86.3 °F 69.8 °F 66% 30.03 in 10.0 mi SSE 17.3 mph - 0.01 in   Mostly Cloudy
3:15 PM 80.6 °F 83.2 °F 68.0 °F 65% 30.03 in 10.0 mi SE 13.8 mph - N/A Thunderstorm Thunderstorm
3:35 PM 77.0 °F - 68.0 °F 74% 30.04 in 10.0 mi SSW 17.3 mph 20.7 mph 0.01 in Thunderstorm Thunderstorm
3:55 PM 68.0 °F - 64.4 °F 88% 30.04 in 10.0 mi West 6.9 mph - 0.20 in Thunderstorm Thunderstorm
4:15 PM 71.6 °F - 66.2 °F 83% 30.01 in 6.0 mi ESE 9.2 mph - 0.09 in Thunderstorm Overcast
4:35 PM 73.4 °F - 69.8 °F 88% 30.02 in 10.0 mi ENE 8.1 mph - 0.09 in   Overcast
4:55 PM 75.2 °F - 71.6 °F 89% 30.00 in 10.0 mi East 10.4 mph - 0.09 in   Mostly Cloudy
5:15 PM 78.8 °F - 73.4 °F 83% 30.00 in 10.0 mi East 13.8 mph - N/A   Scattered Clouds
5:35 PM 80.6 °F 84.6 °F 71.6 °F 74% 29.99 in 10.0 mi ESE 13.8 mph 17.3 mph N/A   Scattered Clouds
5:55 PM 82.4 °F 87.2 °F 71.6 °F 70% 29.98 in 10.0 mi ESE 12.7 mph - N/A   Mostly Cloudy
6:15 PM 82.4 °F 87.2 °F 71.6 °F 70% 29.97 in 10.0 mi SE 13.8 mph - N/A   Partly Cloudy
6:35 PM 82.4 °F 86.3 °F 69.8 °F 66% 29.96 in 10.0 mi SSE 15.0 mph - N/A   Scattered Clouds
6:55 PM 80.6 °F 83.2 °F 68.0 °F 65% 29.98 in 10.0 mi SE 13.8 mph - N/A   Partly Cloudy
7:15 PM 80.6 °F 83.2 °F 68.0 °F 65% 29.97 in 10.0 mi SE 16.1 mph - N/A   Scattered Clouds
7:35 PM 78.8 °F - 66.2 °F 65% 29.96 in 10.0 mi SE 16.1 mph - N/A   Partly Cloudy
7:55 PM 78.8 °F - 68.0 °F 69% 29.97 in 10.0 mi SE 20.7 mph - N/A   Clear
8:15 PM 77.0 °F - 68.0 °F 74% 29.97 in 10.0 mi SE 16.1 mph - N/A   Mostly Cloudy
8:35 PM 75.2 °F - 68.0 °F 78% 29.98 in 10.0 mi SE 13.8 mph - 0.01 in   Overcast
8:55 PM 75.2 °F - 69.8 °F 83% 29.99 in 10.0 mi SE 11.5 mph - 0.02 in Thunderstorm Overcast
9:15 PM 73.4 °F - 69.8 °F 88% 30.00 in 10.0 mi SE 11.5 mph - 0.02 in   Overcast
9:35 PM 73.4 °F - 69.8 °F 88% 30.02 in 10.0 mi SSE 9.2 mph - 0.05 in Thunderstorm Thunderstorm
9:55 PM 73.4 °F - 69.8 °F 88% 30.01 in 10.0 mi SSE 10.4 mph - 0.12 in   Overcast
10:15 PM 73.4 °F - 69.8 °F 88% 30.04 in 10.0 mi SSW 4.6 mph - 0.06 in   Overcast
10:35 PM 73.4 °F - 69.8 °F 88% 30.06 in 10.0 mi NW 6.9 mph - 0.13 in Thunderstorm Overcast
10:55 PM 69.8 °F - 66.2 °F 88% 30.06 in 10.0 mi North 16.1 mph - 0.23 in Thunderstorm Thunderstorm
11:15 PM 66.2 °F - 62.6 °F 88% 30.06 in 10.0 mi NNE 20.7 mph 26.5 mph 0.07 in   Overcast
11:35 PM 66.2 °F - 62.6 °F 88% 30.06 in 10.0 mi NE 16.1 mph 19.6 mph 0.08 in   Overcast
11:55 PM 66.2 °F - 62.6 °F 88% 30.06 in 10.0 mi East 10.4 mph - 0.09 in   Overcast